Temperature
15 15 15 15 15 15 15 15 15 15 15 15 15 15 15 15 15 15 15 15 15 15 15 15 15 15 15 15 15 15 15 15 15 15 15 15 15 15 15 15 15 15 15
15 15 15 15 15 15 15 15 15 15 15 15 15 15 15 15 15 14 14 14 14 14 14 14 15 15 15 15 15 15 15 15 15 15 15 15 15 15 15 15 15 15 15
15 15 15 15 15 15 15 15 15 15 15 14 14 14 14 14 14 14 14 14 14 14 14 14 14 14 14 14 14 14 14 14 14 14 14 14 14 14 14 14 14 14 14
15 15 15 15 15 15 15 15 15 14 14 14 14 14 14 14 14 14 14 14 14 14 14 14 14 14 14 14 14 14 14 14 14 14 14 14 14 14 14 14 14 14 14
15 15 15 14 14 15 14 14 14 14 14 14 14 14 14 14 14 14 14 14 14 14 14 14 14 14 14 14 14 14 14 14 14 14 14 14 14 14 14 14 14 14 14
15 14 14 14 14 14 14 14 14 14 14 14 14 14 13 13 13 13 13 13 13 13 13 13 13 13 13 13 13 13 13 13 13 13 13 14 14 14 14 14 14 13 13
14 14 14 14 14 14 14 14 14 14 14 14 14 13 13 13 13 13 13 13 13 13 13 13 13 13 13 13 13 13 13 13 13 13 13 13 13 13 13 13 13 13 13
14 14 14 14 14 14 14 14 14 14 13 13 13 13 13 13 13 12 13 13 13 13 13 13 13 13 13 13 13 13 13 13 13 13 13 13 13 13 13 13 13 13 13
14 14 14 14 14 14 13 13 13 13 13 13 13 13 13 12 12 12 12 12 12 12 12 12 12 13 13 13 13 13 12 12 12 12 13 13 13 13 13 13 13 13 13
14 14 14 14 14 13 13 13 13 13 13 13 13 13 13 13 12 12 12 12 12 12 12 12 12 12 12 12 12 12 12 12 12 12 12 12 12 12 12 12 12 12 12
14 14 14 14 13 13 13 13 13 13 13 13 13 13 13 13 12 12 11 11 12 12 12 12 12 12 12 12 12 12 12 12 12 12 12 12 12 12 12 12 12 12 12
14 14 14 13 13 13 13 13 13 13 13 13 13 13 13 12 12 12 12 11 11 11 12 11 12 12 11 12 12 12 12 12 12 12 12 12 12 12 12 12 12 11 11
14 14 13 13 13 13 13 13 13 13 13 13 12 12 12 12 12 12 12 11 11 11 11 11 11 11 11 11 11 11 11 11 11 11 11 11 11 11 11 11 11 11 11
14 13 13 13 13 13 13 13 13 13 13 13 12 12 12 12 12 12 12 12 11 11 11 11 11 11 11 11 11 11 11 11 11 11 11 11 11 11 11 11 11 11 11
14 13 13 13 13 13 13 13 13 13 12 12 12 12 12 12 12 12 12 12 11 11 11 11 11 11 11 11 11 11 11 11 11 11 11 11 11 11 11 11 11 11 11
13 13 13 13 13 13 13 12 12 12 12 12 12 12 12 12 12 12 12 12 11 11 11 11 11 11 11 11 11 11 11 11 11 11 10 11 11 11 11 11 10 11 10
13 13 13 13 13 13 13 12 12 12 12 12 12 12 12 12 12 12 12 11 11 11 11 11 11 11 11 11 10 10 10 10 10 10 10 10 10 10 10 10 10 10 10
13 13 13 13 13 12 12 12 12 12 12 12 12 12 12 12 11 11 11 11 11 11 11 11 11 10 10 10 10 10 10 10 10 10 10 10 10 10 10 10 10 10 10
13 13 13 13 12 12 12 12 12 12 12 12 11 11 11 11 11 11 11 11 11 11 11 11 11 10 10 10 10 10 10 10 10 10 10 10 10 10 10 10 10 10 10
13 13 12 12 12 12 12 12 12 12 11 11 11 11 11 11 11 11 11 11 11 11 11 11 10 10 10 10 10 10 10 10 10 10 9 9 9 9 9 9 9 9 9
12 12 12 12 12 12 12 12 11 11 11 11 11 11 11 11 11 10 10 10 10 10 10 10 10 10 10 10 10 10 10 9 9 9 9 9 9 9 9 9 9 9 9
12 12 12 12 12 12 11 11 11 11 11 11 11 11 10 10 10 10 10 10 10 10 10 10 10 10 10 10 9 9 9 9 9 9 9 9 9 9 9 9 9 8 9
12 12 12 12 11 11 11 11 11 11 11 11 10 10 10 10 10 10 10 10 10 10 10 9 10 10 10 10 9 9 9 9 9 9 9 8 8 9 9 8 8 8 8
12 11 11 11 11 11 11 11 11 10 10 10 10 10 10 10 10 10 10 10 10 10 9 9 9 9 9 9 9 9 9 8 9 8 8 8 8 8 8 8 8 8 8
11 11 11 11 11 11 10 10 10 10 10 10 10 10 9 9 9 9 9 9 9 9 9 9 9 9 9 9 9 9 8 8 8 8 8 8 8 8 8 8 8 8 8
11 11 10 10 10 10 10 10 10 10 10 9 9 9 9 9 9 9 9 9 9 9 9 9 9 9 9 9 8 8 8 8 8 8 8 8 8 8 8 8 8 8 7
Wind_Speed
5 5 6 7 7 7 6 6 7 7 7 7 7 8 7 8 8 8 7 10 10 10 10 10 10 9 9 8 8 8 8 8 8 8 8 8 8 9 9 9 9 9 9
5 5 5 6 6 6 6 6 6 6 6 6 7 7 7 7 7 8 8 9 11 11 10 9 9 9 9 9 9 8 8 9 9 9 9 9 9 9 8 8 8 9 9
6 5 4 4 5 6 6 6 7 6 6 6 6 6 6 7 7 7 8 8 9 10 11 10 9 8 8 9 8 8 8 9 10 10 9 9 9 9 9 9 9 8 9
6 5 4 4 5 6 5 5 5 5 6 5 5 5 5 6 7 7 8 8 8 8 10 11 11 10 9 9 9 9 9 9 9 9 9 8 8 8 9 9 9 9 9
5 5 4 4 5 5 4 4 4 4 4 5 4 5 5 5 6 7 8 8 9 9 9 10 11 12 10 9 9 9 8 9 9 8 8 8 8 8 8 8 8 9 9
5 5 4 4 5 4 4 4 5 4 4 3 5 6 5 5 6 7 7 7 8 9 10 10 9 9 11 10 10 10 9 9 9 8 9 9 8 8 8 8 8 8 9
5 5 4 4 4 4 3 4 3 5 4 3 3 4 5 5 6 6 6 6 8 9 10 9 9 8 8 10 11 10 9 9 8 8 9 8 8 8 8 7 7 7 8
4 4 4 3 3 3 4 4 3 2 2 3 2 3 3 4 5 6 5 5 6 7 8 9 9 8 8 7 9 10 10 8 7 7 8 8 8 8 8 8 7 8 8
3 4 3 3 3 3 3 2 3 3 2 2 2 3 2 0 2 4 5 5 6 5 5 6 7 8 8 8 7 8 9 8 7 7 7 6 6 6 6 7 7 7 7
2 3 3 3 3 2 2 2 2 2 3 1 2 2 2 2 2 1 3 4 4 4 5 5 6 7 8 7 7 8 8 7 7 7 7 7 7 7 7 6 6 6 7
2 2 3 3 2 2 2 2 2 2 2 2 1 1 2 2 2 2 1 3 3 3 3 4 4 5 6 7 6 7 8 7 7 8 8 8 8 8 8 7 6 6 6
1 2 2 2 2 1 2 2 2 2 2 2 2 2 2 2 2 2 1 1 2 2 2 3 3 4 5 6 6 7 7 7 7 8 8 8 7 7 7 7 7 6 6
0 0 1 1 1 1 2 2 2 1 2 2 2 1 2 2 2 3 3 1 0 2 2 2 2 3 4 4 4 6 6 7 7 7 7 7 7 7 6 6 6 6 6
2 2 2 2 2 2 2 2 2 1 1 1 1 1 1 1 2 3 3 3 1 1 2 2 2 2 3 3 4 4 4 5 6 6 7 7 7 7 6 6 6 6 6
2 2 2 2 2 2 3 3 2 1 2 1 1 1 1 0 1 1 2 3 3 1 1 2 1 2 2 3 4 4 3 4 5 5 5 6 6 6 6 6 5 5 6
2 3 2 2 2 2 2 3 2 1 2 1 1 1 0 0 1 1 2 2 2 3 2 2 2 1 1 2 3 3 2 3 4 4 4 4 4 5 5 5 4 4 4
3 3 3 3 3 2 2 3 2 2 2 1 0 1 1 1 1 1 1 2 2 2 2 1 1 1 0 1 2 3 3 3 3 3 3 3 4 4 4 4 4 4 4
3 4 3 3 3 3 3 3 3 2 2 2 1 1 1 0 1 1 2 2 2 2 3 2 1 0 0 0 1 2 3 3 2 3 3 3 3 3 3 3 3 4 4
3 3 3 3 3 3 3 3 3 3 2 2 2 2 1 1 1 1 2 2 2 2 2 3 2 1 0 0 1 2 2 3 2 3 2 2 2 2 2 2 2 3 3
4 4 4 4 4 3 3 3 3 3 2 2 2 2 2 2 3 2 2 2 2 2 2 2 2 1 1 0 1 1 1 1 2 3 2 2 2 2 2 1 1 1 1
4 3 3 3 3 3 3 4 3 3 3 2 2 2 2 3 3 3 2 3 3 3 2 2 2 1 1 1 1 1 1 0 1 1 1 2 2 2 2 2 0 0 0
3 3 3 3 3 3 4 5 4 4 3 3 3 2 2 3 3 3 3 4 5 4 4 3 3 3 3 3 2 2 2 1 2 1 0 1 1 1 1 1 1 1 1
3 3 3 3 3 4 5 5 6 4 4 3 3 3 2 2 2 2 2 3 4 6 6 5 5 5 4 5 4 3 3 3 3 2 1 2 1 1 2 2 2 2 2
3 3 3 3 3 3 4 4 5 3 2 3 3 4 3 3 2 2 1 1 2 3 5 4 5 6 5 5 5 4 4 3 1 1 2 2 2 2 1 2 3 3 3
3 3 3 3 3 3 3 3 4 2 2 3 3 3 4 4 4 3 2 2 2 2 3 4 5 5 5 6 6 3 3 2 2 2 2 3 2 2 1 1 3 4 4
3 3 3 3 3 3 3 3 4 3 3 2 2 3 5 4 5 4 3 3 3 3 2 1 1 1 2 4 6 5 5 3 2 3 3 3 2 1 1 1 1 1 2
Wind_Direction
57 56 57 57 55 58 64 64 65 63 60 60 62 61 55 50 45 41 48 57 58 60 66 71 71 77 82 81 81 87 87 88 86 84 85 85 82 80 80 79 77 75 74
72 66 61 56 53 57 66 71 71 69 62 61 56 52 50 46 44 42 42 45 53 57 58 64 70 76 73 73 73 80 82 83 82 80 78 78 76 75 79 80 79 77 77
80 79 72 63 55 60 68 70 67 67 63 59 52 48 48 43 42 41 38 37 39 46 51 56 63 69 71 72 72 76 78 79 79 77 76 76 73 72 77 79 79 80 79
91 86 77 69 65 68 68 68 63 66 60 58 52 42 43 42 40 41 41 37 35 35 39 47 52 59 65 70 69 73 77 79 78 76 75 76 73 73 76 77 79 78 79
95 92 81 75 75 72 65 73 64 69 69 62 59 47 39 39 36 42 41 38 38 38 36 40 45 49 52 59 63 67 75 74 74 76 76 77 74 73 77 76 76 77 74
92 91 83 74 79 75 65 67 73 62 63 59 66 54 40 35 40 38 34 35 37 39 40 40 38 38 45 51 60 63 66 67 68 71 74 73 72 72 76 77 77 78 75
96 94 87 79 80 79 80 81 82 71 52 40 60 45 33 37 39 34 31 36 36 35 40 39 39 38 37 42 52 57 59 65 65 66 67 69 72 73 76 77 76 79 76
94 104 102 98 90 88 78 78 85 80 49 42 74 72 28 15 19 26 28 36 31 33 38 37 36 37 40 40 42 49 51 57 64 65 65 64 66 69 71 72 73 75 74
93 97 106 105 103 105 110 103 105 106 92 35 59 108 112 167 351 5 23 31 29 30 27 29 33 33 38 41 40 45 50 53 59 62 62 67 71 71 71 72 72 73 72
91 98 107 108 109 108 119 126 113 121 126 93 43 55 105 144 132 11 356 7 20 28 22 27 26 30 36 39 42 45 49 51 55 61 61 65 69 72 75 75 75 75 70
71 91 108 109 116 120 128 119 105 112 120 129 125 108 82 71 88 127 352 342 358 3 14 18 22 28 33 33 36 40 44 50 57 60 61 63 68 71 71 73 73 73 69
42 65 102 107 120 134 150 153 141 138 132 122 128 137 147 143 154 142 169 292 336 335 359 17 20 20 29 29 31 35 39 49 56 58 57 56 61 66 68 70 67 68 64
163 202 132 135 134 151 157 144 134 145 147 148 164 171 173 182 163 151 145 166 355 329 352 6 2 16 27 29 23 30 37 46 50 54 56 54 56 58 59 64 61 59 55
197 191 168 160 155 141 134 125 117 146 132 145 160 168 156 180 167 163 160 150 105 356 357 324 345 10 18 27 24 37 36 44 50 53 55 53 53 51 50 52 50 48 47
187 169 160 152 145 134 134 130 125 145 122 128 153 148 139 191 167 169 157 156 152 167 290 287 310 338 12 29 26 47 47 51 53 52 52 50 49 47 44 43 46 46 48
180 161 160 157 145 139 137 130 130 134 122 123 138 126 136 236 170 162 163 156 156 162 202 248 248 280 5 36 28 42 50 46 50 60 57 54 53 51 46 42 51 55 51
181 171 172 162 157 150 145 136 144 134 132 133 139 162 230 200 170 158 148 141 150 152 183 253 251 306 46 51 30 41 46 51 48 64 64 61 60 56 50 47 53 55 55
189 179 168 164 168 164 155 157 168 161 164 180 209 193 242 188 178 181 164 177 184 181 173 207 229 252 274 85 52 48 46 49 50 55 58 59 59 53 50 48 49 53 52
180 172 165 172 177 176 175 176 175 178 185 195 213 207 224 186 228 219 185 194 196 179 165 176 207 203 266 56 62 49 40 30 37 35 46 51 57 51 45 43 49 54 53
180 181 180 183 183 180 183 182 178 186 193 207 218 215 214 212 213 208 203 201 182 160 152 163 187 194 199 148 120 112 29 16 4 19 33 38 41 33 22 16 45 64 69
187 183 178 180 182 186 193 184 187 193 194 204 219 232 235 237 225 208 206 193 175 171 168 172 186 180 206 186 202 183 184 341 333 356 11 6 23 25 356 330 258 184 126
181 170 177 182 192 212 211 198 190 189 192 198 218 238 246 251 251 244 231 203 189 185 187 185 196 205 222 213 182 177 169 182 273 277 144 317 32 321 311 282 242 222 211
173 176 188 187 206 233 227 212 201 185 190 202 214 219 231 243 248 241 252 238 224 216 200 190 196 212 213 208 185 187 195 199 222 216 164 258 270 260 279 268 247 237 234
176 191 199 199 206 232 227 218 203 186 192 212 220 214 215 229 227 210 213 237 237 238 222 210 209 218 215 200 191 197 194 181 203 229 178 218 241 246 285 269 250 232 224
189 197 199 198 204 235 232 207 177 176 199 233 241 230 216 219 231 214 187 213 257 277 252 224 223 222 212 193 172 144 157 173 225 239 201 193 217 241 265 276 261 240 223
194 192 198 203 208 225 227 204 176 179 207 236 251 251 239 231 227 216 205 197 228 257 258 248 239 238 206 191 185 185 188 195 204 225 205 188 203 192 258 269 275 261 242
Height
1520 1520 1520 1521 1521 1521 1521 1521 1521 1521 1521 1522 1522 1522 1522 1522 1522 1522 1521 1521 1521 1521 1521 1521 1521 1521 1522 1522 1522 1523 1523 1524 1525 1526 1527 1528 1528 1529 1529 1529 1529 1529 1529
1523 1523 1523 1523 1523 1523 1524 1523 1523 1523 1523 1523 1524 1524 1524 1524 1524 1523 1523 1523 1523 1523 1522 1522 1523 1523 1523 1523 1523 1523 1524 1525 1525 1526 1527 1528 1528 1529 1529 1530 1530 1530 1530
1525 1525 1525 1525 1525 1525 1525 1525 1525 1525 1525 1525 1525 1525 1525 1525 1525 1525 1524 1524 1524 1524 1524 1524 1524 1524 1524 1525 1525 1525 1525 1525 1526 1527 1527 1528 1528 1529 1529 1530 1530 1531 1531
1527 1527 1527 1527 1527 1527 1527 1527 1527 1527 1527 1527 1527 1527 1527 1527 1527 1526 1526 1526 1525 1525 1525 1525 1525 1526 1526 1526 1526 1526 1526 1526 1526 1527 1528 1528 1529 1529 1530 1530 1531 1531 1531
1529 1529 1529 1529 1529 1529 1529 1529 1528 1528 1528 1528 1528 1528 1528 1528 1528 1527 1527 1527 1527 1527 1527 1527 1527 1527 1527 1527 1527 1527 1527 1527 1527 1528 1528 1529 1529 1530 1530 1530 1531 1531 1532
1530 1530 1530 1530 1530 1530 1530 1530 1530 1530 1530 1530 1529 1529 1529 1529 1529 1529 1529 1528 1528 1528 1528 1528 1528 1528 1528 1528 1528 1528 1528 1527 1528 1529 1529 1529 1530 1530 1531 1531 1531 1531 1532
1531 1531 1531 1531 1531 1531 1531 1531 1531 1531 1531 1531 1531 1531 1531 1531 1531 1530 1530 1530 1529 1529 1529 1529 1529 1529 1529 1529 1528 1528 1529 1529 1529 1529 1530 1530 1530 1531 1531 1531 1531 1532 1532
1532 1532 1532 1532 1532 1532 1532 1532 1532 1532 1532 1532 1532 1531 1532 1534 1532 1532 1532 1531 1531 1530 1530 1530 1530 1530 1530 1529 1529 1529 1529 1530 1530 1530 1530 1530 1530 1531 1531 1531 1531 1531 1531
1532 1532 1533 1533 1533 1533 1533 1533 1533 1533 1533 1533 1533 1533 1533 1533 1533 1534 1533 1532 1532 1532 1531 1531 1531 1531 1530 1530 1530 1530 1530 1530 1531 1531 1531 1531 1531 1531 1531 1531 1531 1531 1531
1532 1532 1533 1533 1533 1533 1533 1533 1533 1533 1534 1533 1533 1534 1534 1534 1534 1534 1534 1533 1533 1532 1532 1531 1531 1531 1531 1531 1531 1531 1531 1531 1531 1531 1531 1531 1531 1531 1531 1531 1531 1531 1531
1532 1532 1532 1533 1533 1533 1533 1533 1534 1534 1534 1534 1534 1534 1534 1534 1534 1534 1534 1534 1533 1533 1532 1532 1532 1532 1532 1531 1531 1531 1531 1531 1531 1531 1531 1531 1531 1531 1531 1531 1531 1531 1531
1531 1532 1532 1532 1532 1533 1533 1533 1534 1534 1534 1534 1534 1534 1534 1534 1534 1534 1534 1533 1533 1533 1533 1533 1533 1532 1532 1532 1532 1532 1531 1531 1531 1531 1531 1531 1531 1531 1531 1531 1531 1531 1531
1530 1531 1531 1531 1532 1532 1532 1533 1533 1533 1533 1533 1534 1534 1534 1534 1534 1534 1534 1533 1533 1533 1533 1533 1533 1533 1532 1532 1532 1532 1532 1532 1532 1532 1532 1532 1532 1531 1531 1531 1531 1531 1531
1529 1530 1530 1530 1531 1531 1532 1532 1532 1532 1533 1533 1533 1533 1533 1533 1533 1533 1533 1533 1532 1533 1533 1533 1533 1533 1532 1532 1532 1532 1532 1532 1532 1532 1532 1532 1531 1531 1531 1531 1531 1531 1530
1528 1529 1529 1529 1530 1530 1531 1531 1531 1531 1532 1532 1532 1532 1532 1532 1532 1532 1533 1533 1533 1532 1532 1532 1532 1532 1532 1532 1532 1531 1532 1532 1531 1531 1531 1531 1531 1531 1531 1531 1530 1530 1530
1527 1527 1528 1528 1528 1529 1529 1530 1530 1530 1530 1530 1531 1531 1531 1531 1531 1531 1531 1531 1532 1532 1531 1531 1531 1532 1531 1531 1531 1531 1531 1531 1531 1531 1531 1531 1531 1530 1530 1530 1530 1529 1529
1525 1526 1526 1526 1527 1527 1527 1528 1528 1528 1528 1528 1529 1529 1529 1529 1529 1529 1529 1529 1530 1530 1530 1530 1530 1530 1530 1530 1530 1531 1531 1530 1530 1530 1530 1530 1530 1529 1529 1529 1529 1528 1528
1523 1523 1524 1524 1525 1525 1525 1526 1526 1526 1526 1526 1527 1527 1527 1527 1527 1527 1527 1527 1528 1528 1528 1528 1528 1528 1528 1529 1529 1529 1529 1529 1529 1529 1529 1529 1528 1528 1528 1528 1527 1527 1527
1520 1521 1521 1522 1522 1523 1523 1524 1524 1524 1524 1524 1524 1524 1524 1525 1525 1525 1525 1525 1525 1526 1526 1526 1526 1526 1526 1527 1527 1527 1527 1527 1527 1527 1527 1527 1527 1526 1526 1526 1526 1526 1526
1517 1518 1519 1519 1520 1520 1521 1521 1522 1522 1522 1522 1522 1522 1522 1522 1522 1522 1522 1522 1522 1523 1523 1523 1523 1524 1524 1524 1525 1525 1525 1525 1525 1525 1525 1525 1525 1524 1524 1524 1524 1524 1524
1514 1515 1516 1516 1517 1517 1518 1519 1519 1519 1519 1519 1520 1520 1520 1520 1520 1520 1519 1519 1519 1519 1520 1520 1520 1521 1521 1521 1522 1522 1522 1522 1522 1523 1523 1523 1523 1522 1522 1522 1522 1522 1522
1511 1512 1512 1513 1514 1514 1515 1516 1516 1516 1516 1516 1516 1517 1517 1517 1517 1517 1516 1516 1517 1517 1517 1517 1517 1518 1518 1519 1519 1519 1520 1520 1519 1521 1520 1520 1520 1520 1520 1520 1520 1520 1520
1507 1508 1509 1509 1510 1511 1512 1512 1513 1513 1513 1513 1513 1513 1513 1514 1514 1513 1513 1513 1513 1514 1514 1515 1514 1515 1515 1516 1516 1516 1517 1517 1517 1517 1518 1517 1517 1517 1517 1517 1518 1518 1518
1503 1504 1505 1505 1506 1507 1508 1508 1509 1509 1510 1510 1510 1510 1510 1510 1510 1510 1510 1509 1510 1510 1511 1511 1511 1512 1513 1513 1513 1513 1513 1513 1513 1514 1515 1514 1514 1514 1514 1515 1515 1515 1515
1499 1500 1501 1502 1502 1503 1504 1505 1505 1505 1506 1506 1506 1506 1506 1506 1506 1507 1506 1506 1506 1506 1507 1508 1508 1508 1509 1509 1510 1510 1510 1510 1509 1510 1511 1511 1510 1510 1511 1511 1511 1512 1512
1496 1496 1497 1498 1499 1499 1500 1501 1501 1501 1501 1502 1502 1502 1503 1503 1503 1503 1503 1502 1502 1502 1503 1503 1504 1504 1505 1505 1505 1506 1506 1506 1506 1506 1506 1507 1507 1507 1507 1507 1508 1508 1508